Location: Chassagnes
(44.4047°N, 4.1657°E)
Time: 12:53:30
(UTC+00:00)

Lacrosse 5 - Pass Details

Date: 27 October 2020
Orbit: 716 x 723 km, 57.0° (Epoch: 06 November)

Event Time Altitude Azimuth Distance (km) Brightness Sun altitude
Rises 19:58:45 0° 312° (NW) 3,125 6.0 -35.9°
Reaches altitude 10° 20:01:20 10° 321° (NW) 2,204 4.9 -36.3°
Enters shadow 20:02:42 17° 331° (NNW) 1,769 4.3 -36.6°
